GW0207 Weather Reports


Display with metric or nautical units.
time (UTC)temp
F
wind
direction
speed
MPH
gust
MPH
rain 1hr
in
rain 24hr
in
rain mn
in
humidity
%
barometer
mb
20260503012103 50 227 0.0 0.0 0.00 0.17 0.17 94 1012.7
20260503011828 50 227 0.0 0.0 0.00 0.17 0.17 94 1012.6
20260503011105 50 227 0.0 0.0 0.00 0.17 0.17 93 1012.5
20260503010603 50 227 0.0 0.0 0.00 0.17 0.17 93 1012.4
20260503005602 51 227 0.0 0.0 0.00 0.17 0.17 93 1012.2
20260503005103 51 227 0.0 0.0 0.00 0.17 0.17 93 1012.2
20260503004603 51 227 0.0 0.0 0.00 0.17 0.17 92 1012.2
20260503004103 51 227 0.0 0.0 0.00 0.17 0.17 92 1012.2
20260503003603 52 227 0.0 0.0 0.00 0.17 0.17 92 1012.1
20260503003103 52 227 0.0 0.0 0.00 0.17 0.17 92 1012.1
20260503002603 52 227 0.0 0.0 0.00 0.17 0.17 92 1011.9
20260503002103 53 227 0.0 0.0 0.00 0.17 0.17 91 1011.8
20260503001603 53 227 0.0 0.0 0.00 0.17 0.17 91 1011.8
20260503001101 53 227 0.0 0.0 0.00 0.17 0.17 91 1011.7
20260503000601 53 227 0.0 0.0 0.00 0.17 0.17 91 1011.6
20260502235824 54 227 0.0 0.0 0.00 0.17 0.17 91 1011.4
20260502235100 54 227 0.0 0.0 0.00 0.17 0.17 91 1011.4
20260502234824 54 227 0.0 0.0 0.00 0.17 0.17 91 1011.4
20260502234101 54 227 0.0 0.0 0.00 0.17 0.17 91 1011.4
20260502233601 54 228 0.0 0.0 0.00 0.17 0.17 91 1011.4
20260502233103 54 228 0.0 0.0 0.00 0.17 0.17 90 1011.2
20260502232600 54 228 0.0 0.0 0.00 0.17 0.17 90 1011.3
20260502232326 54 228 0.0 0.0 0.00 0.17 0.17 90 1011.2
20260502231825 55 227 0.0 0.0 0.00 0.17 0.17 90 1011.1
20260502231331 55 252 0.0 0.0 0.00 0.17 0.17 90 1011.1
20260502230600 55 252 0.0 0.0 0.00 0.17 0.17 90 1011.0
20260502230325 55 249 0.0 0.0 0.00 0.17 0.17 89 1011.0
20260502225603 55 249 0.0 0.0 0.00 0.17 0.17 89 1011.0
20260502225059 55 249 0.0 2.0 0.00 0.17 0.17 89 1011.0
20260502224553 55 249 0.0 2.0 0.00 0.17 0.17 89 1011.1
20260502224047 55 249 0.0 0.0 0.00 0.17 0.17 88 1011.1
20260502223545 55 249 0.0 1.0 0.00 0.17 0.17 88 1011.1
20260502223037 55 249 0.0 1.0 0.00 0.17 0.17 88 1011.1
20260502222537 55 250 0.0 0.0 0.00 0.17 0.17 87 1011.0
20260502222038 56 250 0.0 0.0 0.00 0.17 0.17 87 1011.0
20260502221535 56 250 0.0 0.0 0.00 0.17 0.17 87 1011.0
20260502221033 56 249 0.0 0.0 0.00 0.17 0.17 86 1010.9
20260502220535 56 249 0.0 0.0 0.00 0.17 0.17 86 1010.8
20260502220032 56 250 0.0 0.0 0.00 0.17 0.17 86 1010.7
20260502215532 56 257 0.0 0.0 0.00 0.17 0.17 86 1010.7
20260502215031 56 257 0.0 0.0 0.00 0.17 0.17 85 1010.7
20260502215016 56 257 0.0 0.0 0.00 0.17 0.17 85 1010.7
20260502214031 56 235 0.0 0.0 0.00 0.17 0.17 85 1010.8
20260502213531 56 223 0.0 0.0 0.00 0.17 0.17 85 1010.8
20260502213031 56 246 0.0 0.0 0.00 0.17 0.17 86 1010.8
20260502212531 56 231 0.0 0.0 0.00 0.17 0.17 86 1010.8
20260502212032 56 233 0.0 0.0 0.00 0.17 0.17 86 1010.7
20260502211531 55 233 0.0 0.0 0.00 0.17 0.17 86 1010.7
20260502211032 56 240 0.0 0.0 0.00 0.17 0.17 85 1010.7
20260502210532 56 240 0.0 0.0 0.00 0.17 0.17 85 1010.7
20260502210031 56 236 0.0 0.0 0.00 0.17 0.17 84 1010.7
20260502205531 56 233 0.0 0.0 0.00 0.17 0.17 84 1010.8
20260502205032 56 206 0.0 0.0 0.00 0.17 0.17 84 1010.9
20260502204531 57 192 0.0 0.0 0.00 0.17 0.17 84 1010.9
20260502204029 57 190 0.0 1.0 0.00 0.17 0.17 82 1010.8
20260502203529 57 230 0.0 2.0 0.00 0.17 0.17 81 1010.9
20260502203030 57 115 0.0 2.0 0.00 0.17 0.17 81 1010.9
20260502202529 57 220 0.0 1.0 0.00 0.17 0.17 82 1010.7
20260502202029 57 33 0.0 1.0 0.00 0.17 0.17 82 1010.7
20260502201529 57 63 0.0 1.0 0.00 0.17 0.17 82 1010.7
20260502201029 57 233 0.0 1.0 0.00 0.17 0.17 82 1010.7
20260502200528 57 233 0.0 1.0 0.00 0.17 0.17 83 1010.8
20260502200029 57 226 0.0 2.0 0.00 0.17 0.17 84 1010.8
20260502195756 57 259 0.0 2.0 0.00 0.17 0.17 85 1010.9
20260502195032 56 237 0.0 1.0 0.00 0.17 0.17 86 1011.0
20260502194530 56 273 0.0 1.0 0.00 0.17 0.17 86 1011.0
20260502194029 56 243 0.0 2.0 0.00 0.17 0.17 85 1011.0
20260502193529 56 292 0.0 2.0 0.00 0.17 0.17 85 1011.2
20260502193029 56 263 0.0 0.0 0.00 0.17 0.17 85 1011.2
20260502192528 56 252 0.0 0.0 0.00 0.17 0.17 85 1011.2
20260502192029 56 248 0.0 3.0 0.00 0.17 0.17 85 1011.2
20260502191530 56 256 0.0 3.0 0.00 0.17 0.17 85 1011.3
20260502191029 56 97 0.0 1.0 0.00 0.17 0.17 86 1011.3
20260502190528 56 258 0.0 1.0 0.00 0.17 0.17 87 1011.3
20260502190028 56 260 0.0 1.0 0.00 0.17 0.17 88 1011.3
20260502185530 56 242 0.0 1.0 0.00 0.17 0.17 88 1011.5
20260502185029 56 246 0.0 2.0 0.00 0.17 0.17 89 1011.5
20260502184530 55 233 0.0 2.0 0.00 0.17 0.17 88 1011.6
20260502184028 55 139 0.0 1.0 0.00 0.17 0.17 88 1011.6
20260502183749 55 327 0.0 2.0 0.00 0.17 0.17 89 1011.6
20260502183031 55 250 0.0 2.0 0.00 0.17 0.17 89 1011.7
20260502182531 55 216 0.0 1.0 0.00 0.17 0.17 91 1011.9
20260502182031 55 49 0.0 2.0 0.00 0.17 0.17 90 1011.9
20260502181532 54 227 0.0 2.0 0.00 0.17 0.17 90 1011.9
20260502181032 54 266 0.0 1.0 0.00 0.17 0.17 92 1012.1
20260502180531 54 251 0.0 1.0 0.00 0.17 0.17 92 1012.0
20260502164012 52 269 0.0 0.0 0.02 0.17 0.17 93 1012.8
20260502163506 52 44 0.0 2.0 0.02 0.17 0.17 93 1012.9
20260502163008 52 253 0.0 2.0 0.01 0.16 0.16 92 1013.1
20260502162505 52 351 0.0 1.0 0.01 0.16 0.16 93 1013.2
20260502162005 52 90 0.0 1.0 0.01 0.16 0.16 93 1013.4
20260502161730 52 256 0.0 1.0 0.01 0.16 0.16 93 1013.4
20260502161005 52 332 0.0 0.0 0.01 0.16 0.16 93 1013.3
20260502160506 52 240 0.0 4.0 0.02 0.16 0.16 93 1013.3
20260502152001 52 81 0.0 1.0 0.03 0.15 0.15 93 1013.0
20260502151502 52 69 0.0 2.0 0.04 0.15 0.15 93 1012.9
20260502151001 52 270 0.0 2.0 0.04 0.15 0.15 93 1013.0
20260502150500 52 265 0.0 1.0 0.04 0.14 0.14 93 1013.1
20260502130153 52 306 0.0 1.0 0.02 0.04 0.04 93 1012.1
20260502123429 52 353 0.0 1.0 0.02 0.03 0.03 92 1011.9
20260502123145 52 71 0.0 0.0 0.02 0.03 0.03 92 1011.7
20260502122428 52 72 0.0 0.0 0.02 0.03 0.03 92 1011.6
20260502121928 52 131 0.0 1.0 0.02 0.03 0.03 92 1011.6
20260502121429 52 251 0.0 1.0 0.01 0.02 0.02 92 1011.6
20260502120928 52 62 0.0 0.0 0.01 0.02 0.02 92 1011.8
20260502120429 52 67 0.0 0.0 0.01 0.02 0.02 91 1011.6
20260502115928 52 299 0.0 0.0 0.02 0.02 0.02 91 1011.7
20260502115429 52 3 0.0 0.0 0.02 0.02 0.02 91 1011.8
20260502115152 52 314 0.0 0.0 0.02 0.02 0.02 91 1011.8
20260502114431 52 70 0.0 1.0 0.02 0.02 0.02 91 1011.8
20260502113928 52 72 0.0 1.0 0.02 0.02 0.02 90 1011.8
20260502113429 52 236 0.0 1.0 0.01 0.01 0.01 90 1011.8
20260502112929 52 309 0.0 1.0 0.01 0.01 0.01 90 1011.8
20260502112648 52 343 0.0 1.0 0.01 0.01 0.01 90 1012.0
20260502111930 52 294 0.0 1.0 0.01 0.01 0.01 90 1012.0
20260502111428 52 8 0.0 0.0 0.01 0.01 0.01 90 1012.0
20260502110929 52 79 0.0 0.0 0.01 0.01 0.01 90 1011.9
20260502110428 53 82 0.0 0.0 0.01 0.01 0.01 90 1012.1
20260502105928 53 82 0.0 0.0 0.00 0.00 0.00 89 1012.1
20260502105429 53 6 0.0 0.0 0.00 0.00 0.00 89 1012.1
20260502104929 53 8 0.0 0.0 0.00 0.00 0.00 88 1012.1
20260502104430 53 11 0.0 0.0 0.00 0.00 0.00 88 1012.0
20260502103929 53 270 0.0 1.0 0.00 0.00 0.00 88 1012.0
20260502103431 53 27 0.0 1.0 0.00 0.00 0.00 88 1012.0
20260502102928 53 100 0.0 1.0 0.00 0.00 0.00 88 1012.0
20260502102428 53 64 0.0 1.0 0.00 0.00 0.00 89 1012.0
20260502101929 53 64 0.0 1.0 0.00 0.00 0.00 90 1011.8
20260502101430 53 145 0.0 0.0 0.00 0.00 0.00 90 1012.0
20260502100929 53 145 0.0 0.0 0.00 0.00 0.00 91 1012.0
20260502100431 53 145 0.0 0.0 0.00 0.00 0.00 91 1012.0
20260502091428 52 165 0.0 0.0 0.00 0.00 0.00 93 1011.8
20260502090929 52 165 0.0 0.0 0.00 0.00 0.00 93 1011.7
20260502090428 52 165 0.0 0.0 0.00 0.00 0.00 94 1011.7
20260502071404 51 225 0.0 0.0 0.00 0.00 0.00 93 1011.2
20260502070901 51 225 0.0 0.0 0.00 0.00 0.00 93 1011.3
20260502070401 51 225 0.0 0.0 0.00 0.00 0.00 93 1011.3
20260502065901 51 225 0.0 0.0 0.00 0.00 0.00 93 1011.3
20260502065400 51 225 0.0 0.0 0.00 0.00 0.00 93 1011.2
20260502064901 51 225 0.0 0.0 0.00 0.00 0.00 93 1011.2
20260502064404 51 225 0.0 0.0 0.00 0.00 0.00 93 1011.2
20260502063903 51 225 0.0 0.0 0.00 0.00 0.00 93 1011.3
20260502063627 52 225 0.0 0.0 0.00 0.00 0.00 93 1011.3
20260502062905 52 225 0.0 0.0 0.00 0.00 0.00 93 1011.5
20260502062404 52 226 0.0 0.0 0.00 0.00 0.00 93 1011.5
20260502061903 52 226 0.0 0.0 0.00 0.00 0.00 92 1011.4
20260502061403 52 226 0.0 0.0 0.00 0.00 0.00 92 1011.4
20260502060903 52 226 0.0 0.0 0.00 0.00 0.00 92 1011.4
20260502060403 52 226 0.0 0.0 0.00 0.00 0.00 92 1011.5
20260502055905 52 226 0.0 0.0 0.00 0.00 0.00 92 1011.5
20260502055404 52 225 0.0 0.0 0.00 0.00 0.00 92 1011.5
20260502054902 52 225 0.0 0.0 0.00 0.00 0.00 92 1011.5
20260502054403 52 225 0.0 0.0 0.00 0.00 0.00 92 1011.6
20260502054123 52 225 0.0 0.0 0.00 0.00 0.00 92 1011.8
20260502053404 52 226 0.0 0.0 0.00 0.00 0.00 92 1011.7
20260502052903 52 226 0.0 0.0 0.00 0.00 0.00 92 1011.8
20260502052404 52 226 0.0 0.0 0.00 0.00 0.00 92 1011.8
20260502051903 52 226 0.0 0.0 0.00 0.00 0.00 91 1011.9
20260502051403 52 226 0.0 0.0 0.00 0.00 0.00 91 1011.9
20260502050903 52 225 0.0 0.0 0.00 0.00 0.00 91 1011.9
20260502050403 52 225 0.0 0.0 0.00 0.00 0.00 91 1012.0
20260502045903 52 225 0.0 0.0 0.00 0.00 0.00 91 1012.0
20260502045403 52 226 0.0 0.0 0.00 0.00 0.00 91 1011.9
20260502044905 52 226 0.0 0.0 0.00 0.00 0.00 91 1012.0
20260502044403 52 225 0.0 0.0 0.00 0.00 0.00 91 1012.0
20260502043903 52 226 0.0 0.0 0.00 0.00 0.00 91 1012.0
20260502043402 52 225 0.0 0.0 0.00 0.00 0.00 91 1012.0
20260502042904 52 226 0.0 0.0 0.00 0.00 0.00 91 1012.0
20260502042405 52 225 0.0 0.0 0.00 0.00 0.00 91 1012.1
20260502041902 52 225 0.0 0.0 0.00 0.00 0.00 91 1012.2
20260502041403 52 225 0.0 0.0 0.00 0.00 0.00 91 1012.3
20260502041354 52 225 0.0 0.0 0.00 0.00 0.00 91 1012.3
20260502040403 52 225 0.0 0.0 0.00 0.00 0.00 91 1012.2
20260502035903 52 225 0.0 0.0 0.00 0.00 0.00 91 1012.2
20260502035404 52 225 0.0 0.0 0.00 0.00 0.00 91 1012.3
20260502034900 52 225 0.0 0.0 0.00 0.00 0.00 91 1012.4
20260502034401 52 225 0.0 0.0 0.00 0.00 0.00 91 1012.3
20260502033901 52 226 0.0 0.0 0.00 0.00 0.00 90 1012.3
20260502033400 52 226 0.0 0.0 0.00 0.00 0.00 90 1012.3
20260502032900 52 226 0.0 0.0 0.00 0.00 0.00 90 1012.2
20260502032401 52 226 0.0 0.0 0.00 0.00 0.00 90 1012.3
20260502031901 52 226 0.0 0.0 0.00 0.00 0.00 90 1012.3
20260502031400 52 226 0.0 0.0 0.00 0.00 0.00 89 1012.3
20260502030901 52 225 0.0 0.0 0.00 0.00 0.00 89 1012.4
20260502030402 52 225 0.0 0.0 0.00 0.00 0.00 89 1012.5
20260502025901 52 225 0.0 0.0 0.00 0.00 0.00 89 1012.5
20260502025401 53 225 0.0 0.0 0.00 0.00 0.00 89 1012.5
20260502024901 53 225 0.0 0.0 0.00 0.00 0.00 89 1012.5
20260502024626 53 225 0.0 0.0 0.00 0.00 0.00 89 1012.6
20260502023901 53 225 0.0 0.0 0.00 0.00 0.00 89 1012.5
20260502023400 53 228 0.0 0.0 0.00 0.00 0.00 89 1012.4
20260502022901 53 228 0.0 0.0 0.00 0.00 0.00 89 1012.5
20260502022400 53 229 0.0 0.0 0.00 0.00 0.00 89 1012.7
20260502021901 53 228 0.0 0.0 0.00 0.00 0.00 89 1012.7
20260502021401 53 229 0.0 0.0 0.00 0.00 0.00 89 1012.6
20260502020901 53 229 0.0 0.0 0.00 0.00 0.00 89 1012.6
20260502020400 53 84 0.0 0.0 0.00 0.00 0.00 88 1012.7
20260502015900 53 85 0.0 0.0 0.00 0.00 0.00 88 1012.6
20260502015401 53 84 0.0 0.0 0.00 0.00 0.00 88 1012.6
20260502014901 53 84 0.0 0.0 0.00 0.00 0.00 88 1012.5
20260502014401 53 84 0.0 0.0 0.00 0.00 0.00 89 1012.6
20260502014122 53 84 0.0 0.0 0.00 0.00 0.00 89 1012.6
20260502013354 53 84 0.0 0.0 0.00 0.00 0.00 89 1012.6
20260502012849 53 84 0.0 0.0 0.00 0.00 0.00 89 1012.6